[[{"header":{"parameterUnit":"m.s-1","parameterCategory":1,"la1":30.2991,"la2":30.254,"lo1":-89.0895,"lo2":-89.0444,"dy":0.0017,"dx":0.0017,"nx":28,"ny":28,"refTime":"2024-04-29T03:00:00:Z","depth":0,"parameterNumber":2,"parameterNumberName":"U-component_of_WINDS"},"data":[0,0,0,0,0,0,0,0,0,0,0,0,0,0,0,0,0,0,0,0,0,0,0,0,0,0,0,0,0,0,0,0,0,0,0,0,0,0,0,0,0,0,0,0,0,0,0,0,0,0,0,0,0,0,0,0,0,0,2.5204,2.5205,0,2.5331,2.5332,2.5334,2.5388,2.5388,2.5388,2.5387,2.5521,2.5525,2.5528,0,0,0,0,0,0,0,0,0,0,0,0,0,2.5014,2.5017,2.5204,2.5206,2.5207,2.5331,2.5332,2.5334,2.5388,2.5388,2.5388,2.5387,2.552,2.5524,2.5529,0,0,0,0,0,0,0,0,0,0,0,0,0,2.5114,2.5018,2.5204,2.5249,2.5254,2.533,2.5332,2.5335,2.5388,2.5388,2.5388,2.5387,2.5518,2.5524,2.5529,2.5571,0,0,2.5547,2.5549,0,0,0,0,0,0,0,0,2.5109,2.5121,2.5241,2.5246,2.5252,2.5343,2.5315,2.5414,2.5388,2.5337,2.5387,2.5387,2.5462,2.5473,2.5497,2.5577,2.5583,2.5547,2.5551,2.5553,2.5555,0,0,0,0,0,0,0,2.5102,2.5116,2.5254,2.5242,2.5249,2.5265,2.5279,2.5334,2.54,2.5342,2.5346,2.536,2.5465,2.5492,2.5501,2.5585,2.5547,2.5552,2.5555,2.5558,2.571,2.571,0,0,0,0,0,0,2.5087,2.511,2.525,2.5258,2.5178,2.5268,2.5284,2.5314,2.54,2.5413,2.536,2.5362,2.5482,2.5494,2.5506,2.5563,2.5553,2.5558,2.5561,2.5709,2.571,2.5711,0,0,0,0,0,0,2.5082,2.5099,2.5245,2.5185,2.5205,2.5272,2.5306,2.5317,2.5343,2.5414,2.5426,2.5374,2.5482,2.5498,2.5555,2.5568,2.5561,2.5566,2.5708,2.5709,2.571,2.5675,0,0,0,0,0,0,2.5077,2.5097,2.5112,2.5185,2.5208,2.529,2.5307,2.532,2.5352,2.5356,2.543,2.5443,2.5483,2.5546,2.5561,2.5576,2.557,2.5708,2.5709,2.571,2.5675,2.5674,2.5674,0,0,0,0,0,2.507,2.5096,2.5112,2.5129,2.5228,2.5291,2.5304,2.5349,2.5353,2.537,2.5416,2.544,2.5564,2.5552,2.5568,2.5585,2.5707,2.5708,2.571,2.5675,2.5675,2.5674,0,0,0,0,0,0,2.5023,2.5107,2.5125,2.5176,2.5226,2.53,2.5322,2.5347,2.5397,2.5399,2.5454,2.5471,2.5524,2.556,2.5545,2.5632,2.5638,2.5643,2.5606,2.5606,2.5605,2.5595,2.5575,0,0,0,0,0,2.5018,2.5061,2.5133,2.5171,2.5195,2.5254,2.5283,2.5314,2.5369,2.539,2.544,2.5493,2.5545,2.5577,2.5628,2.5681,2.5699,2.5701,2.57,2.5699,2.5703,2.5737,2.5739,2.5715,2.5715,2.5715,0,0,2.501,2.5061,2.5084,2.5163,2.5205,2.5251,2.5272,2.5318,2.5352,2.5398,2.5455,2.5494,2.5557,2.5613,2.564,2.5645,2.5714,2.5701,2.57,2.5705,2.5739,2.5741,2.5743,2.5716,2.5716,2.5716,0,0,2.5017,2.5059,2.5097,2.514,2.5203,2.5243,2.5252,2.5323,2.5351,2.5409,2.5445,2.5488,2.5574,2.5619,2.5653,2.5681,2.5706,2.5696,2.5693,2.5725,2.5727,2.5729,2.5741,2.5744,2.5699,2.5699,2.5699,0,2.4999,2.5066,2.5114,2.5159,2.5194,2.5237,2.5277,2.5316,2.5394,2.5418,2.5422,2.5533,2.5579,2.5647,2.5654,2.5679,2.5694,2.5687,2.5722,2.5725,2.5728,2.574,2.5744,2.5698,2.5698,2.5698,2.5698,0,2.5042,2.5089,2.5112,2.5186,2.5223,2.5265,2.5321,2.5354,2.5383,2.5423,2.5484,2.554,2.5604,2.5623,2.5651,2.5696,2.5698,2.5711,2.5719,2.5728,2.574,2.5745,2.5695,2.5696,2.5696,2.5697,0,0,2.5021,2.5123,2.5131,2.5166,2.5241,2.5279,2.5325,2.5388,2.5416,2.5469,2.551,2.5584,2.5598,2.5636,2.567,2.5699,2.572,2.571,2.5712,2.5711,2.5777,2.5767,2.5771,2.5738,2.5739,2.5739,2.5773,0,2.504,2.5123,2.5168,2.5233,2.5279,2.5322,2.5362,2.5414,2.5453,2.5499,2.5544,2.5596,2.5609,2.5633,2.5663,2.5711,2.5735,2.5709,2.5779,2.5781,2.5762,2.5778,2.5766,2.5795,2.5777,2.5778,2.5779,0,2.5073,2.5125,2.5194,2.5267,2.5288,2.5323,2.5386,2.5428,2.5489,2.5516,2.5561,2.5595,2.5648,2.5651,2.5726,2.5708,2.5739,2.5768,2.577,2.5779,2.5781,2.5788,2.5804,2.5809,2.5787,2.5786,2.5786,0,2.5054,2.5141,2.5195,2.5224,2.5309,2.5334,2.5371,2.5431,2.5467,2.5522,2.5547,2.5608,2.5641,2.5689,2.574,2.5737,2.5811,2.5818,2.5837,2.5836,2.585,2.5849,2.5873,2.5869,2.5869,2.5869,2.5869,0,2.507,2.5111,2.5188,2.522,2.5269,2.5322,2.5369,2.541,2.5464,2.5507,2.5549,2.5589,2.5653,2.5702,2.5742,2.58,2.5814,2.5839,2.585,2.5836,2.5833,2.5858,2.5858,2.587,2.587,2.5869,2.5869,0,2.5057,2.5109,2.5171,2.5247,2.5268,2.53,2.5367,2.5402,2.5444,2.5499,2.5515,2.5582,2.5642,2.5698,2.5777,2.5805,2.5864,2.5876,2.5843,2.5849,2.5865,2.5863,2.5907,2.5916,2.5904,2.5904,2.5904,0,2.5064,2.5097,2.5178,2.5209,2.5246,2.5296,2.5333,2.5388,2.5425,2.5499,2.5526,2.5589,2.5642,2.5737,2.5794,2.5856,2.5871,2.5882,2.5881,2.5867,2.5874,2.5871,2.5876,2.5882,2.5881,2.5881,2.5881,0,2.5073,2.5098,2.5149,2.521,2.5253,2.5304,2.5357,2.5381,2.5446,2.5487,2.5548,2.559,2.5672,2.5735,2.5804,2.5845,2.5875,2.5881,2.5889,2.5876,2.5856,2.5869,2.5842,2.588,2.588,2.588,2.588,2.588,2.5071,2.5103,2.5166,2.5223,2.5268,2.5317,2.5354,2.5402,2.5454,2.5525,2.5555,2.5618,2.5682,2.5778,2.5818,2.587,2.5876,2.5887,2.5891,2.5893,2.5891,2.5847,2.5883,2.5883,2.5883,2.5883,2.5883,0,2.5083,2.5126,2.5178,2.525,2.5296,2.5319,2.538,2.5416,2.5471,2.5528,2.558,2.5652,2.5714,2.5777,2.5843,2.5873,2.5889,2.5889,2.5887,2.5897,2.5881,2.5868,2.5875,2.5875,2.5875,2.5875,2.5875,2.5875,2.5095,2.5151,2.5184,2.5265,2.5308,2.537,2.5403,2.5449,2.5495,2.5574,2.5625,2.5666,2.5726,2.5797,2.5856,2.5873,2.5896,2.5893,2.5914,2.5898,2.5898,2.5898,2.5886,2.5897,2.5897,2.5926,2.5926,2.5927]},{"header":{"parameterUnit":"m.s-1","parameterCategory":1,"la1":30.2991,"la2":30.254,"lo1":-89.0895,"lo2":-89.0444,"dy":0.0017,"dx":0.0017,"nx":28,"ny":28,"refTime":"2024-04-29T03:00:00:Z","depth":0,"parameterNumber":3,"parameterNumberName":"V-component_of_WINDS"},"data":[0,0,0,0,0,0,0,0,0,0,0,0,0,0,0,0,0,0,0,0,0,0,0,0,0,0,0,0,0,0,0,0,0,0,0,0,0,0,0,0,0,0,0,0,0,0,0,0,0,0,0,0,0,0,0,0,0,0,0.8883,0.8884,0,0.9006,0.9008,0.9009,0.9028,0.9027,0.9026,0.9025,0.9152,0.9156,0.916,0,0,0,0,0,0,0,0,0,0,0,0,0,0.866,0.8664,0.8882,0.8884,0.8886,0.9006,0.9008,0.901,0.9029,0.9027,0.9026,0.9025,0.915,0.9156,0.9161,0,0,0,0,0,0,0,0,0,0,0,0,0,0.8767,0.8665,0.8882,0.891,0.8913,0.9006,0.9008,0.901,0.9029,0.9027,0.9026,0.9024,0.9149,0.9155,0.9162,0.9235,0,0,0.9182,0.9185,0,0,0,0,0,0,0,0,0.8761,0.8775,0.8904,0.8908,0.8912,0.9,0.8976,0.9086,0.9029,0.8985,0.9025,0.9023,0.9103,0.9113,0.914,0.9241,0.9247,0.9182,0.9186,0.9189,0.9191,0,0,0,0,0,0,0,0.8754,0.877,0.8932,0.8906,0.8911,0.8915,0.8928,0.8997,0.9052,0.8989,0.899,0.9005,0.9105,0.9133,0.9143,0.9249,0.9182,0.9188,0.9192,0.9195,0.9411,0.9413,0,0,0,0,0,0,0.8742,0.8764,0.8928,0.8935,0.8831,0.892,0.8935,0.8974,0.9051,0.9061,0.9006,0.9005,0.9123,0.9135,0.9147,0.9235,0.9189,0.9195,0.9199,0.941,0.9412,0.9414,0,0,0,0,0,0,0.8737,0.8756,0.8923,0.885,0.8872,0.8926,0.8969,0.8977,0.9006,0.9064,0.9074,0.9026,0.9122,0.9138,0.9212,0.924,0.9198,0.9204,0.9407,0.941,0.9413,0.9414,0,0,0,0,0,0,0.873,0.8754,0.8784,0.8851,0.8875,0.8986,0.8971,0.8981,0.9017,0.9017,0.9085,0.9095,0.9122,0.9202,0.9219,0.9249,0.9209,0.9405,0.9409,0.9412,0.9412,0.9416,0.942,0,0,0,0,0,0.8722,0.878,0.8785,0.8805,0.8914,0.8988,0.9002,0.9033,0.9019,0.9049,0.9085,0.9092,0.9235,0.921,0.9228,0.9261,0.9403,0.9408,0.9412,0.941,0.9416,0.942,0,0,0,0,0,0,0.8716,0.879,0.8796,0.8878,0.8926,0.8991,0.9029,0.9038,0.9092,0.909,0.9125,0.914,0.9212,0.9244,0.9215,0.9333,0.9318,0.9326,0.931,0.9316,0.932,0.931,0.9215,0,0,0,0,0,0.8724,0.8779,0.884,0.8906,0.893,0.8975,0.9009,0.9028,0.908,0.91,0.9143,0.9193,0.9248,0.9284,0.9339,0.9416,0.943,0.9447,0.9452,0.9455,0.9461,0.9501,0.9508,0.9427,0.9427,0.9427,0,0,0.8742,0.8789,0.8821,0.8906,0.8946,0.9,0.8993,0.9052,0.9092,0.911,0.9181,0.9213,0.9271,0.9346,0.9381,0.9375,0.9486,0.946,0.9462,0.9467,0.9505,0.9513,0.952,0.943,0.9429,0.9429,0,0,0.8801,0.8843,0.8901,0.894,0.9,0.9029,0.9042,0.9105,0.9127,0.9199,0.9213,0.926,0.9356,0.9395,0.9428,0.9497,0.9504,0.9514,0.9536,0.9574,0.9581,0.9586,0.9608,0.9616,0.952,0.952,0.952,0,0.8815,0.8898,0.8929,0.8986,0.9022,0.9039,0.9096,0.9133,0.9208,0.9231,0.9223,0.934,0.9381,0.9463,0.9479,0.9506,0.9521,0.9506,0.9577,0.9584,0.9589,0.961,0.9619,0.9521,0.952,0.952,0.952,0,0.8911,0.8968,0.9007,0.9077,0.9117,0.9174,0.9212,0.9248,0.9263,0.9292,0.9363,0.9411,0.9474,0.9495,0.9511,0.9578,0.9572,0.957,0.9555,0.9597,0.9617,0.9626,0.9521,0.9521,0.9521,0.9521,0,0,0.8971,0.9055,0.9069,0.9099,0.9164,0.9209,0.9265,0.9325,0.9354,0.9404,0.9451,0.9529,0.9527,0.9563,0.9583,0.9617,0.9664,0.961,0.9612,0.9616,0.9737,0.9737,0.9746,0.9669,0.9671,0.9672,0.9731,0,0.9036,0.9137,0.9164,0.9249,0.93,0.9316,0.9364,0.9408,0.9436,0.9483,0.9514,0.9567,0.9562,0.9583,0.9617,0.9651,0.9688,0.9647,0.971,0.9712,0.9694,0.9757,0.9758,0.9811,0.974,0.9741,0.9742,0,0.9126,0.9175,0.9265,0.932,0.9342,0.9386,0.9441,0.9486,0.9535,0.9553,0.9592,0.9607,0.9664,0.9646,0.9723,0.9694,0.9721,0.9741,0.9744,0.975,0.9729,0.9762,0.983,0.9837,0.9755,0.9754,0.9753,0,0.9157,0.9246,0.931,0.9336,0.9403,0.9432,0.9461,0.9509,0.9542,0.9591,0.9612,0.9666,0.9696,0.9737,0.9766,0.975,0.9839,0.9824,0.9853,0.9852,0.9871,0.9869,0.9941,0.9891,0.9891,0.9891,0.9891,0,0.9225,0.9278,0.9325,0.9364,0.9423,0.9453,0.9511,0.954,0.9582,0.9625,0.9643,0.9683,0.972,0.9765,0.9788,0.9846,0.986,0.9874,0.9879,0.9871,0.9869,0.9889,0.9885,0.9893,0.9893,0.9892,0.9892,0,0.927,0.9303,0.9373,0.943,0.9445,0.9486,0.9533,0.9571,0.9598,0.9653,0.9668,0.971,0.9764,0.9796,0.9865,0.988,0.9943,0.9948,0.9926,0.9928,0.9954,0.995,1.004,1.0052,0.9996,0.9997,0.9997,0,0.931,0.9351,0.9411,0.9441,0.947,0.9519,0.9552,0.9583,0.9616,0.9673,0.9703,0.9757,0.9802,0.9886,0.9922,0.9973,0.9978,1.0006,0.9986,0.9975,0.9975,0.9971,0.9974,1.0009,1.0009,1.001,1.001,0,0.9377,0.9391,0.9438,0.949,0.9529,0.9572,0.9614,0.9638,0.9675,0.9711,0.9765,0.98,0.9868,0.992,0.9973,1.0002,1.0011,1.0016,1.0025,1.0017,1.0001,1.0007,0.9933,1.0014,1.0013,1.0013,1.0013,1.0013,0.942,0.9455,0.9502,0.9553,0.9587,0.9626,0.9662,0.9693,0.9739,0.9796,0.9811,0.9867,0.9911,0.9984,1.0013,1.0056,1.0052,1.0066,1.0069,1.0071,1.007,0.9995,1.0066,1.0066,1.0066,1.0066,1.0066,0,0.9485,0.9515,0.9562,0.9619,0.9658,0.9663,0.971,0.9742,0.979,0.9832,0.9874,0.9934,0.9984,1.0023,1.0074,1.01,1.0106,1.0112,1.011,1.0116,1.0072,1.0058,1.0107,1.0107,1.0107,1.0107,1.0107,1.0107,0.9524,0.9583,0.9601,0.9677,0.9707,0.9761,0.9786,0.9821,0.9853,0.9919,0.996,0.9985,1.0024,1.0078,1.0122,1.0133,1.0149,1.0155,1.0165,1.0124,1.0119,1.0115,1.0102,1.0159,1.0159,1.0205,1.0205,1.0206]}]]